Preview of NWS' New Version of Forecast
This preview is not operational and should not be used for support decisions.

Terminal Aerodrome Forecast (TAF)

Issued by National Weather Service (NWS)

                            
000
FTUS41 KGYX 251721
TAFRKD
TAF
KRKD 251721Z 2518/2618 08009G16KT P6SM SKC
     FM252300 VRB03KT P6SM SKC=